Zurück zum Katalog

STARLINK-35373

AktivKommunikationSSO
NORAD 65792·PAYLOAD·🇺🇸 United States

Gestartet Sep 26, 2025 von Vandenberg Space Force Base

Loading…

Nächste Überflüge (nächste 24 Stunden)

TLE

AktuellSource: CelesTrak SupGP

Epoche: Sep 14, 2026, 15:48 UTC

1 65792C 25218B   26257.65881944 -.00036886  00000+0 -11449-2 0  2574
2 65792  97.2843 115.1466 0002047  99.1468 150.7110 15.33460228    18

Verfolge STARLINK-35373 in Echtzeit mit AllMySat

Download on the App Store